Погода в Октябрьском

Россия / Карачаево-Черкесская Республика     44°15′21″N   42°29′16″E
темп.,
°C
ветер,
м/с
пор.,
м/с
влажн.,
%
обл.,
%
осадки,
мм/ч
давл.,
гПа
погр.,
м
4 марта, чт
чт400:00−2зсз5119499 0.4 1026544
03:00−4зюз4109157 0.4 1027302
06:00−5зюз34860 0.0 102895
09:00−1зюз37690 0.0 1027373
12:00+1з57670 0.0 1025709
15:00+2з47670 0.0 1023702
18:00−1юз33780 0.0 102347
21:00−1ююз22740 0.0 102421
5 марта, пт
пт500:00−2ю11750 0.0 102221
03:00−2ююв11720 0.0 102221
06:00−2юв11680 0.0 102121
09:00+2ююз01490 0.0 1020111
12:00+6в22400 0.0 1018329
15:00+8вюв22420 0.0 1017467
18:00+4юв11583 0.0 101922
21:00+2ююз12602 0.0 102022
6 марта, сб
сб600:00+2зюз22540 0.0 102022
03:00+2юз22440 0.0 101922
06:00+2юз224032 0.0 101922
09:00+7юз123618 0.0 101865
12:00+12юз012933 0.0 1016344
15:00+12ссз224137 0.0 1014439
18:00+8ю1258100 0.0 101522
21:00+6сз3566100 0.0 1016119
7 марта, вс
вс700:00+3з51090100 0.0 1018598
03:00−1зсз71192100 0.7 1020768
06:00−2зсз71193100 1.8 1022772
09:00−4зсз81279100 2.9 1024783
12:00−3зсз696435 0.0 1025904
15:00−2зсз576218 0.0 1024851
18:00−4зсз35730 0.0 1025301
21:00−5з23760 0.0 1026176
8 марта, пн
пн800:00−5зюз24730 0.0 1024213
03:00−5зюз247412 0.0 1024212
06:00−5юз238087 0.0 1022154
09:00−3ю116870 0.0 1021472
12:00+1ссз12530 0.0 1019756
15:00+1зсз33541 0.0 1018980
18:00−1зсз127338 0.0 101923
21:00−2зюз127469 0.0 102025